Dirección General De Aeronáutica Civil

Dirección Meteorológica de Chile - Servicios Climáticos

Informe General de Control de Calidad de la Estación

Listado de niveles de control de calidad para algunos parámetros
Estación Punta Panul Faro (330028)
Fecha de Revisión de los datos :

Elementos

Registros Niveles de Control Total
Nivel 0 Nivel 1 Nivel 2 Nivel 3 Errores Porcentaje
01 Temperatura del Aire Seco 23.754 0 . 0 . 0 . 0 . 0 0.00 %
02 Temperatura de Rocío 23.758 0 . 0 . 0 . 0 . 0 0.00 %
03 Humedad Relativa del Aire 23.757 0 . 0 . 0 . 0 . 0 0.00 %
04 Temperatura Máxima PM 6.257 0 . 0 . 20 0.32 % 0 . 20 0.32 %
05 Temperatura Mínima AM 6.242 0 . 0 . 11 0.18 % 0 . 11 0.18 %
06 Viento a 10 m. de Altura 23.750 2 0.01 % 0 . 2 0.01 % 0 . 4 0.02 %
07 Agua Caida, Acumulada 6 Horas 11.981 0 . 156 1.30 % 0 . 0 . 156 1.30 %
08 Presión Atm. a Nivel de Estación (QFE) 23.735 0 . 0 . 0 . 0 . 0 0.00 %
09 Presión Atm. a Nivel Medio del Mar (QFF) 23.755 0 . 0 . 0 . 0 . 0 0.00 %
10 Tiempo Pasado Sinóptico 23.606 0 . 0 . 0 . 0 . 0 0.00 %
11 Tiempo Presente Sinóptico 23.653 0 . 8 0.03 % 0 . 0 . 8 0.03 %

Totales

214.248 . 0.0009 % . 0.0765 % . 0.0154 % . 0.0000 % 199 0.0929 %

Detalle de Errores Encontrados

Nivel Fecha del Dato Descripción Información Error Fecha Ingreso
0 2021-01-08 12:00:00 ff (Intensidad del Viento) debe ser numerico, entre 0 y 70 kt. 91 2021-01-08 12:29:00
0 2022-09-08 06:00:00 ff (Intensidad del Viento) debe ser numerico, entre 0 y 70 kt. 111 2022-09-08 06:08:00
Errores del Nivel 2
Nivel Fecha del Dato Descripción Información Error Fecha Ingreso
1 2016-04-14 00:00:00 rrr = s/p y WW = 2 w1=8 w2=2 0.0 2016-04-14 00:08:00
1 2016-04-15 12:00:00 rrr = s/p y WW = 21 w1=6 w2=6 0.0 2016-04-15 11:48:00
1 2016-04-15 18:00:00 rrr = s/p y WW = 50 w1=8 w2=5 0.0 2016-04-15 18:09:00
1 2016-04-21 12:00:00 rrr = 0.5 y WW = 2 w1=2 w2=2 0.5 2016-04-21 11:34:00
1 2016-04-25 00:00:00 rrr = s/p y WW = 2 w1=8 w2=0 0.0 2016-04-25 00:25:00
1 2016-05-11 12:00:00 rrr = s/p y WW = 60 w1=8 w2=2 0.0 2016-05-11 12:00:00
1 2016-05-15 06:00:00 rrr = 1.0 y WW = 1 w1=2 w2=0 1.0 2016-05-15 09:05:00
1 2016-05-19 18:00:00 rrr = s/p y WW = 3 w1=6 w2=0 0.0 2016-05-19 18:05:00
1 2016-05-20 12:00:00 rrr = s/p y WW = 2 w1=6 w2=2 0.0 2016-05-20 11:53:00
1 2016-05-20 18:00:00 rrr = 0.5 y WW = 2 w1=2 w2=2 0.5 2016-05-20 17:53:00
1 2016-05-21 12:00:00 rrr = s/p y WW = 64 w1=9 w2=6 0.0 2016-05-21 12:07:00
1 2016-05-25 18:00:00 rrr = trazas y WW = 2 w1=2 w2=2 0.0 2016-05-25 18:15:00
1 2016-05-29 12:00:00 rrr = s/p y WW = 25 w1=6 w2=2 0.0 2016-05-29 12:10:00
1 2016-06-04 06:00:00 rrr = 0.2 y WW = 1 w1=2 w2=2 0.2 2016-06-04 06:04:00
1 2016-06-04 12:00:00 rrr = 13.0 y WW = 1 w1=2 w2=2 13.0 2016-06-04 11:59:00
1 2016-06-13 00:00:00 rrr = 0.2 y WW = 2 w1=2 w2=2 0.2 2016-06-13 00:01:00
1 2016-06-28 18:00:00 rrr = 0.3 y WW = 10 w1=4 w2=2 0.3 2016-06-28 17:59:00
1 2016-07-11 18:00:00 rrr = s/p y WW = 2 w1=6 w2=0 0.0 2016-07-11 17:57:00
1 2016-07-14 12:00:00 rrr = s/p y WW = 2 w1=8 w2=0 0.0 2016-07-14 11:59:00
1 2016-07-18 06:00:00 rrr = 1.0 y WW = 1 w1=2 w2=1 1.0 2016-07-18 05:45:00
1 2016-07-24 12:00:00 rrr = 0.7 y WW = 2 w1=2 w2=2 0.7 2016-07-24 11:44:00
1 2016-07-25 18:00:00 rrr = s/p y WW = 1 w1=6 w2=5 0.0 2016-07-25 18:35:00
1 2016-08-10 18:00:00 rrr = 0.2 y WW = 2 w1=4 w2=4 0.2 2016-08-10 17:51:00
1 2016-09-12 12:00:00 rrr = s/p y WW = 20 w1=2 w2=2 0.0 2016-09-12 12:22:00
1 2016-09-25 12:00:00 rrr = s/p y WW = 2 w1=5 w2=2 0.0 2016-09-25 12:23:00
1 2016-10-04 06:00:00 rrr = trazas y WW = 1 w1=2 w2=2 0.0 2016-10-04 05:53:00
1 2016-10-14 06:00:00 rrr = 0.8 y WW = 2 w1=4 w2=4 0.8 2016-10-14 05:40:00
1 2016-11-01 12:00:00 rrr = s/p y WW = 2 w1=5 w2=0 0.0 2016-11-01 12:13:00
1 2016-12-01 06:00:00 rrr = trazas y WW = 2 w1=2 w2=2 0.0 2016-12-01 05:58:00
1 2016-12-13 00:00:00 rrr = trazas y WW = 2 w1=0 w2=0 0.0 2016-12-12 23:54:00
1 2017-03-09 06:00:00 rrr = s/p y WW = 51 w1=2 w2=2 0.0 2017-03-09 06:15:00
1 2017-04-07 12:00:00 rrr = s/p y WW = 51 w1=5 w2=5 0.0 2017-04-07 12:30:00
1 2017-04-07 18:00:00 rrr = s/p y WW = 2 w1=5 w2=2 0.0 2017-04-07 19:12:00
1 2017-04-10 00:00:00 rrr = trazas y WW = 2 w1=0 w2=0 0.0 2017-04-10 00:10:00
1 2017-04-20 18:00:00 rrr = s/p y WW = 2 w1=5 w2=2 0.0 2017-04-20 20:17:00
1 2017-05-08 06:00:00 rrr = s/p y WW = 2 w1=5 w2=2 0.0 2017-05-08 05:38:00
1 2017-05-12 06:00:00 rrr = s/p y WW = 2 w1=6 w2=5 0.0 2017-05-12 05:48:00
1 2017-05-12 12:00:00 rrr = 1.0 y WW = 3 w1=2 w2=2 1.0 2017-05-12 12:05:00
1 2017-05-15 12:00:00 rrr = 0.2 y WW = 2 w1=0 w2=0 0.2 2017-05-15 12:13:00
1 2017-05-18 18:00:00 rrr = s/p y WW = 3 w1=6 w2=2 0.0 2017-05-18 17:56:00
1 2017-06-16 18:00:00 rrr = s/p y WW = 2 w1=6 w2=2 0.0 2017-06-17 06:52:00
1 2017-06-17 06:00:00 rrr = s/p y WW = 2 w1=6 w2=2 0.0 2017-06-17 08:06:00
1 2017-07-14 00:00:00 rrr = s/p y WW = 3 w1=6 w2=0 0.0 2017-07-14 00:17:00
1 2017-07-24 00:00:00 rrr = s/p y WW = 2 w1=5 w2=2 0.0 2017-07-23 23:45:00
1 2017-09-02 06:00:00 rrr = s/p y WW = 2 w1=5 w2=2 0.0 2017-09-02 05:52:00
1 2018-01-10 06:00:00 rrr = s/p y WW = 45 w1=5 w2=5 0.0 2018-01-10 08:02:00
1 2018-01-14 12:00:00 rrr = 0.1 y WW = 10 w1=2 w2=2 0.1 2018-01-14 11:52:00
1 2018-01-14 18:00:00 rrr = 2.0 y WW = 2 w1=4 w2=2 2.0 2018-01-14 17:50:00
1 2018-03-14 06:00:00 rrr = trazas y WW = 2 w1=0 w2=0 0.0 2018-03-14 06:29:00
1 2018-03-18 12:00:00 rrr = 2.0 y WW = 2 w1=0 w2=0 2.0 2018-03-18 12:28:00
1 2018-03-28 18:00:00 rrr = s/p y WW = 2 w1=7 w2=2 0.0 2018-03-28 17:46:00
1 2018-04-04 12:00:00 rrr = s/p y WW = 20 w1=2 w2=2 0.0 2018-04-04 12:26:00
1 2018-04-04 18:00:00 rrr = s/p y WW = 2 w1=5 w2=2 0.0 2018-04-04 17:45:00
1 2018-04-11 12:00:00 rrr = s/p y WW = 2 w1=5 w2=2 0.0 2018-04-11 12:13:00
1 2018-04-24 00:00:00 rrr = 1.0 y WW = 2 w1=1 w2=1 1.0 2018-04-24 02:16:00
1 2018-05-08 12:00:00 rrr = s/p y WW = 20 w1=4 w2=4 0.0 2018-05-08 11:43:00
1 2018-05-09 12:00:00 rrr = 0.1 y WW = 2 w1=2 w2=2 0.1 2018-05-09 12:04:00
1 2018-05-20 12:00:00 rrr = trazas y WW = 2 w1=0 w2=0 0.0 2018-05-20 12:12:00
1 2018-05-23 12:00:00 rrr = trazas y WW = 2 w1=0 w2=0 0.0 2018-05-23 12:16:00
1 2018-07-06 18:00:00 rrr = s/p y WW = 1 w1=5 w2=2 0.0 2018-07-06 18:09:00
1 2018-07-07 12:00:00 rrr = trazas y WW = 2 w1=4 w2=0 0.0 2018-07-07 12:04:00
1 2018-07-14 06:00:00 rrr = s/p y WW = 25 w1=4 w2=4 0.0 2018-07-14 06:05:00
1 2018-07-28 06:00:00 rrr = s/p y WW = 1 w1=5 w2=0 0.0 2018-07-28 05:58:00
1 2018-08-07 12:00:00 rrr = 12.0 y WW = 2 w1=2 w2=2 12.0 2018-08-07 12:09:00
1 2018-08-23 12:00:00 rrr = 3.4 y WW = 2 w1=2 w2=2 3.4 2018-08-23 11:40:00
1 2019-02-20 06:00:00 rrr = s/p y WW = 20 w1=2 w2=2 0.0 2019-02-20 11:12:00
1 2019-03-25 00:00:00 rrr = trazas y WW = 1 w1=2 w2=0 0.0 2019-03-25 00:00:00
1 2019-04-16 18:00:00 rrr = trazas y WW = 2 w1=0 w2=0 0.0 2019-04-16 18:30:00
1 2019-04-24 18:00:00 rrr = s/p y WW = 2 w1=6 w2=2 0.0 2019-04-24 21:32:00
1 2019-05-14 12:00:00 rrr = 0.1 y WW = 10 w1=4 w2=4 0.1 2019-05-14 12:02:00
1 2019-05-18 12:00:00 rrr = 0.4 y WW = 1 w1=2 w2=0 0.4 2019-05-18 12:12:00
1 2019-05-30 06:00:00 rrr = s/p y WW = 1 w1=6 w2=2 0.0 2019-05-30 09:08:00
1 2019-05-30 12:00:00 rrr = 3.5 y WW = 3 w1=2 w2=0 3.5 2019-05-31 14:17:00
1 2019-06-13 12:00:00 rrr = s/p y WW = 2 w1=6 w2=0 0.0 2019-06-13 12:34:00
1 2019-06-14 12:00:00 rrr = s/p y WW = 50 w1=5 w2=5 0.0 2019-06-14 12:25:00
1 2019-06-30 00:00:00 rrr = s/p y WW = 1 w1=6 w2=6 0.0 2019-06-30 00:07:00
1 2019-07-01 18:00:00 rrr = trazas y WW = 2 w1=0 w2=0 0.0 2019-07-01 18:02:00
1 2019-07-12 18:00:00 rrr = 0.1 y WW = 10 w1=0 w2=0 0.1 2019-07-13 11:57:00
1 2019-09-08 12:00:00 rrr = 1.0 y WW = 2 w1=0 w2=0 1.0 2019-09-08 11:51:00
1 2019-09-14 12:00:00 rrr = s/p y WW = 50 w1=5 w2=2 0.0 2019-09-14 12:07:00
1 2019-09-26 12:00:00 rrr = s/p y WW = 50 w1=5 w2=5 0.0 2019-09-26 11:36:00
1 2019-09-27 12:00:00 rrr = 0.3 y WW = 2 w1=2 w2=2 0.3 2019-09-27 11:35:00
1 2019-09-30 00:00:00 rrr = s/p y WW = 1 w1=5 w2=2 0.0 2019-09-29 23:38:00
1 2019-11-13 12:00:00 rrr = s/p y WW = 10 w1=5 w2=2 0.0 2019-11-13 11:45:00
1 2019-12-28 00:00:00 rrr = trazas y WW = 2 w1=0 w2=0 0.0 2019-12-28 00:46:00
1 2020-01-13 06:00:00 rrr = s/p y WW = 2 w1=5 w2=5 0.0 2020-01-13 07:21:00
1 2020-01-19 18:00:00 rrr = s/p y WW = 5 w1=5 w2=2 0.0 2020-01-19 18:27:00
1 2020-02-11 18:00:00 rrr = s/p y WW = 2 w1=5 w2=2 0.0 2020-02-11 18:22:00
1 2020-02-12 18:00:00 rrr = 0.1 y WW = 5 w1=2 w2=1 0.1 2020-02-12 18:04:00
1 2020-02-16 18:00:00 rrr = trazas y WW = 3 w1=2 w2=1 0.0 2020-02-16 17:59:00
1 2020-02-17 06:00:00 rrr = trazas y WW = 2 w1=2 w2=2 0.0 2020-02-17 06:13:00
1 2020-02-20 06:00:00 rrr = trazas y WW = 2 w1=0 w2=0 0.0 2020-02-20 06:03:00
1 2020-02-29 18:00:00 rrr = s/p y WW = 4 w1=5 w2=2 0.0 2020-02-29 18:03:00
1 2020-03-01 12:00:00 rrr = s/p y WW = 50 w1=5 w2=5 0.0 2020-03-01 12:18:00
1 2020-03-09 12:00:00 rrr = trazas y WW = 5 w1=0 w2=0 0.0 2020-03-09 12:20:00
1 2020-04-24 06:00:00 rrr = 0.1 y WW = 2 w1=2 w2=2 0.1 2020-04-24 06:16:00
1 2020-04-28 00:00:00 rrr = s/p y WW = 53 w1=2 w2=2 0.0 2020-04-28 00:05:00
1 2020-04-29 06:00:00 rrr = trazas y WW = 2 w1=0 w2=0 0.0 2020-04-29 05:45:00
1 2020-05-02 18:00:00 rrr = trazas y WW = 2 w1=2 w2=1 0.0 2020-05-02 18:15:00
1 2020-05-09 18:00:00 rrr = trazas y WW = 10 w1=4 w2=4 0.0 2020-05-09 17:52:00
1 2020-05-17 12:00:00 rrr = 1.0 y WW = 10 w1=0 w2=0 1.0 2020-05-17 11:58:00
1 2020-05-19 18:00:00 rrr = trazas y WW = 2 w1=2 w2=2 0.0 2020-05-19 18:03:00
1 2020-05-21 00:00:00 rrr = 0.3 y WW = 2 w1=0 w2=0 0.3 2020-05-20 23:53:00
1 2020-06-12 18:00:00 rrr = s/p y WW = 1 w1=6 w2=2 0.0 2020-06-12 17:52:00
1 2020-06-17 06:00:00 rrr = s/p y WW = 60 w1=5 w2=2 0.0 2020-06-17 06:29:00
1 2020-06-21 00:00:00 rrr = trazas y WW = 2 w1=2 w2=2 0.0 2020-06-21 00:07:00
1 2020-06-24 12:00:00 rrr = 0.2 y WW = 2 w1=2 w2=2 0.2 2020-06-24 11:51:00
1 2020-06-25 06:00:00 rrr = s/p y WW = 2 w1=8 w2=0 0.0 2020-06-25 05:58:00
1 2020-06-30 00:00:00 rrr = 0.2 y WW = 3 w1=2 w2=0 0.2 2020-06-30 00:15:00
1 2020-07-01 18:00:00 rrr = 0.1 y WW = 2 w1=1 w2=0 0.1 2020-07-01 18:02:00
1 2020-07-09 12:00:00 rrr = 5.5 y WW = 10 w1=0 w2=0 5.5 2020-07-09 12:08:00
1 2020-07-23 12:00:00 rrr = 8.2 y WW = 2 w1=1 w2=0 8.2 2020-07-23 11:52:00
1 2020-07-31 12:00:00 rrr = 5.7 y WW = 2 w1=0 w2=0 5.7 2020-07-31 12:24:00
1 2020-08-05 18:00:00 rrr = s/p y WW = 1 w1=5 w2=2 0.0 2020-08-05 17:54:00
1 2020-09-05 00:00:00 rrr = trazas y WW = 2 w1=2 w2=2 0.0 2020-09-04 23:59:00
1 2020-09-09 12:00:00 rrr = 0.3 y WW = 2 w1=0 w2=0 0.3 2020-09-09 11:45:00
1 2020-11-01 00:00:00 rrr = s/p y WW = 20 w1=2 w2=2 0.0 2020-11-01 00:28:00
1 2020-12-27 18:00:00 rrr = s/p y WW = 1 w1=5 w2=2 0.0 2020-12-27 18:07:00
1 2020-12-28 12:00:00 rrr = 0.1 y WW = 3 w1=2 w2=0 0.1 2020-12-28 11:48:00
1 2021-01-27 06:00:00 rrr = trazas y WW = 2 w1=2 w2=2 0.0 2021-01-27 06:03:00
1 2021-02-05 12:00:00 rrr = trazas y WW = 10 w1=2 w2=2 0.0 2021-02-05 12:12:00
1 2021-02-05 18:00:00 rrr = s/p y WW = 20 w1=4 w2=2 0.0 2021-02-05 19:38:00
1 2021-02-12 12:00:00 rrr = 0.2 y WW = 2 w1=2 w2=2 0.2 2021-02-12 11:59:00
1 2021-02-13 12:00:00 rrr = s/p y WW = 50 w1=5 w2=4 0.0 2021-02-13 11:55:00
1 2021-02-13 18:00:00 rrr = s/p y WW = 10 w1=5 w2=2 0.0 2021-02-13 17:57:00
1 2021-03-10 12:00:00 rrr = s/p y WW = 20 w1=2 w2=2 0.0 2021-03-10 11:46:00
1 2021-03-12 00:00:00 rrr = trazas y WW = 2 w1=2 w2=2 0.0 2021-03-12 00:28:00
1 2021-03-23 18:00:00 rrr = trazas y WW = 2 w1=2 w2=2 0.0 2021-03-23 17:56:00
1 2021-04-22 12:00:00 rrr = 0.2 y WW = 10 w1=4 w2=2 0.2 2021-04-22 12:30:00
1 2021-06-14 12:00:00 rrr = 0.1 y WW = 10 w1=4 w2=4 0.1 2021-06-14 12:05:00
1 2021-06-26 00:00:00 rrr = 0.2 y WW = 1 w1=2 w2=2 0.2 2021-06-26 00:05:00
1 2021-07-03 18:00:00 rrr = trazas y WW = 2 w1=0 w2=0 0.0 2021-07-03 17:55:00
1 2021-09-13 18:00:00 rrr = s/p y WW = 1 w1=8 w2=0 0.0 2021-09-19 13:48:00
1 2021-11-10 06:00:00 rrr = s/p y WW = 2 w1=5 w2=2 0.0 2021-11-10 06:03:00
1 2021-12-23 18:00:00 rrr = s/p y WW = 2 w1=5 w2=5 0.0 2021-12-23 18:08:00
1 2022-01-08 12:00:00 rrr = trazas y WW = 10 w1=2 w2=2 0.0 2022-01-08 11:57:00
1 2022-02-09 12:00:00 rrr = s/p y WW = 10 w1=8 w2=5 0.0 2022-02-09 12:00:00
1 2022-02-10 12:00:00 rrr = trazas y WW = 10 w1=2 w2=2 0.0 2022-02-10 12:01:00
1 2022-03-01 06:00:00 rrr = trazas y WW = 2 w1=0 w2=0 0.0 2022-03-01 05:58:00
1 2022-04-18 12:00:00 rrr = trazas y WW = 10 w1=2 w2=2 0.0 2022-04-18 12:03:00
1 2022-04-24 18:00:00 rrr = s/p y WW = 2 w1=5 w2=4 0.0 2022-04-24 17:59:00
1 2022-05-20 18:00:00 rrr = 1.2 y WW = 1 w1=2 w2=1 1.2 2022-05-20 18:22:00
1 2022-07-12 12:00:00 rrr = trazas y WW = 10 w1=0 w2=0 0.0 2022-07-12 11:50:00
1 2022-07-16 06:00:00 rrr = 0.1 y WW = 1 w1=2 w2=0 0.1 2022-07-16 06:16:00
1 2022-07-26 06:00:00 rrr = trazas y WW = 1 w1=2 w2=1 0.0 2022-07-26 06:24:00
1 2022-08-17 12:00:00 rrr = s/p y WW = 2 w1=6 w2=0 0.0 2022-08-17 12:24:00
1 2022-09-08 06:00:00 rrr = s/p y WW = 80 w1=8 w2=8 0.0 2022-09-08 06:08:00
1 2022-09-29 18:00:00 rrr = trazas y WW = 10 w1=2 w2=2 0.0 2022-09-29 17:56:00
1 2022-09-30 12:00:00 rrr = trazas y WW = 14 w1=2 w2=2 0.0 2022-09-30 12:14:00
1 2023-04-11 12:00:00 rrr = trazas y WW = 10 w1=2 w2=2 0.0 2023-04-11 11:45:00
1 2023-07-05 12:00:00 rrr = 0.1 y WW = 10 w1=2 w2=1 0.1 2023-07-05 11:59:00
1 2023-09-07 00:00:00 rrr = 1.3 y WW = 1 w1=2 w2=0 1.3 2023-09-07 11:47:00
1 2023-10-30 06:00:00 rrr = s/p y WW = 2 w1=8 w2=2 0.0 2023-10-30 05:59:00
1 2023-11-18 00:00:00 rrr = s/p y WW = 2 w1=6 w2=2 0.0 2023-11-18 03:19:00
1 2023-12-24 12:00:00 rrr = trazas y WW = 10 w1=2 w2=2 0.0 2023-12-24 11:43:00
1 2024-01-17 18:00:00 rrr = trazas y WW = 10 w1=2 w2=0 0.0 2024-01-17 18:47:00
1 2017-06-08 06:00:00 ts > 3.0 y ( (ww >= 48 y ww <= 49) o (ww >= 56 y ww <= 57) o (ww >=66 y ww <= 67)) 57 2018-10-25 18:40:00
1 2018-06-11 06:00:00 ts > 3.0 y ( (ww >= 48 y ww <= 49) o (ww >= 56 y ww <= 57) o (ww >=66 y ww <= 67)) 67 2018-06-11 05:55:00
1 2019-08-26 15:00:00 (ts - td > 5.0) y ((ww >= 40 y ww <= 49)) 40 2019-08-26 15:09:00
1 2019-12-29 18:00:00 (ts - td > 5.0) y ((ww >= 40 y ww <= 49)) 47 2019-12-29 17:49:00
1 2020-05-03 12:00:00 ts > 3.0 y ( (ww >= 48 y ww <= 49) o (ww >= 56 y ww <= 57) o (ww >=66 y ww <= 67)) 56 2020-05-03 11:49:00
1 2020-10-10 12:00:00 ts > 3.0 y ( (ww >= 48 y ww <= 49) o (ww >= 56 y ww <= 57) o (ww >=66 y ww <= 67)) 49 2020-10-10 11:49:00
1 2021-04-16 12:00:00 ts > 3.0 y ( (ww >= 48 y ww <= 49) o (ww >= 56 y ww <= 57) o (ww >=66 y ww <= 67)) 57 2021-04-16 11:58:00
1 2022-03-04 03:00:00 ts > 3.0 y ( (ww >= 48 y ww <= 49) o (ww >= 56 y ww <= 57) o (ww >=66 y ww <= 67)) 57 2022-03-04 02:49:00
Errores del Nivel 164
Nivel Fecha del Dato Descripción Información Error Fecha Ingreso
2 2021-03-02 00:00:00 Temperatura 17.6 del 01-03-2021 21:00, Mayor que la Máxima 17.5 02-03-2021 00:00 17.6 -- 17.5 2021-03-01 23:50:00
2 2021-07-15 00:00:00 Temperatura 14.2 del 14-07-2021 18:00, Mayor que la Máxima 13.0 15-07-2021 00:00 14.2 -- 13.0 2021-07-15 00:22:00
2 2021-08-15 00:00:00 Temperatura 11.4 del 14-08-2021 18:00, Mayor que la Máxima 10.3 15-08-2021 00:00 11.4 -- 10.3 2021-08-14 23:53:00
2 2021-12-21 00:00:00 Temperatura 17.5 del 20-12-2021 18:00, Mayor que la Máxima 17.0 21-12-2021 00:00 17.5 -- 17.0 2021-12-20 23:57:00
2 2022-03-25 00:00:00 Temperatura 19.0 del 24-03-2022 18:00, Mayor que la Máxima 18.5 25-03-2022 00:00 19.0 -- 18.5 2022-03-25 00:30:00
2 2022-04-02 00:00:00 Temperatura 14.8 del 01-04-2022 15:00, Mayor que la Máxima 14.5 02-04-2022 00:00 14.8 -- 14.5 2022-04-01 23:56:00
2 2022-04-09 00:00:00 Temperatura 13.1 del 08-04-2022 18:00, Mayor que la Máxima 13.0 09-04-2022 00:00 13.1 -- 13.0 2022-04-09 00:01:00
2 2022-04-19 00:00:00 Temperatura 14.6 del 18-04-2022 15:00, Mayor que la Máxima 13.3 19-04-2022 00:00 14.6 -- 13.3 2022-04-19 00:05:00
2 2022-05-13 00:00:00 Temperatura 13.9 del 12-05-2022 18:00, Mayor que la Máxima 13.0 13-05-2022 00:00 13.9 -- 13.0 2022-05-13 00:17:00
2 2022-06-17 00:00:00 Temperatura 15.2 del 16-06-2022 18:00, Mayor que la Máxima 15.0 17-06-2022 00:00 15.2 -- 15.0 2022-06-16 23:54:00
2 2023-02-01 00:00:00 Temperatura 19.0 del 31-01-2023 18:00, Mayor que la Máxima 18.2 01-02-2023 00:00 19.0 -- 18.2 2023-02-01 01:34:00
2 2023-02-07 00:00:00 Temperatura 17.4 del 06-02-2023 18:00, Mayor que la Máxima 17.0 07-02-2023 00:00 17.4 -- 17.0 2023-02-07 00:24:00
2 2023-02-27 00:00:00 Temperatura 20.2 del 26-02-2023 18:00, Mayor que la Máxima 20.1 27-02-2023 00:00 20.2 -- 20.1 2023-02-27 00:03:00
2 2023-04-06 00:00:00 Temperatura 17.9 del 05-04-2023 18:00, Mayor que la Máxima 17.5 06-04-2023 00:00 17.9 -- 17.5 2023-04-06 00:59:00
2 2023-04-18 00:00:00 Temperatura 15.9 del 17-04-2023 18:00, Mayor que la Máxima 15.0 18-04-2023 00:00 15.9 -- 15.0 2023-04-17 23:57:00
2 2023-05-06 00:00:00 Temperatura 14.4 del 05-05-2023 18:00, Mayor que la Máxima 13.0 06-05-2023 00:00 14.4 -- 13.0 2023-05-05 23:55:00
2 2023-06-21 00:00:00 Temperatura 15.2 del 20-06-2023 18:00, Mayor que la Máxima 15.0 21-06-2023 00:00 15.2 -- 15.0 2023-06-21 00:32:00
2 2023-07-17 00:00:00 Temperatura 14.0 del 16-07-2023 18:00, Mayor que la Máxima 13.5 17-07-2023 00:00 14.0 -- 13.5 2023-07-17 00:38:00
2 2023-11-17 00:00:00 Temperatura 16.8 del 16-11-2023 18:00, Mayor que la Máxima 15.8 17-11-2023 00:00 16.8 -- 15.8 2023-11-17 00:04:00
2 2023-12-22 00:00:00 Temperatura 15.8 del 21-12-2023 18:00, Mayor que la Máxima 15.6 22-12-2023 00:00 15.8 -- 15.6 2023-12-22 00:07:00
2 2021-08-15 12:00:00 Temperatura 9.8 del 15-08-2021 03:00, Menor que la Mínima 10.0 15-08-2021 12:00 9.8 -- 10.0 2021-08-15 12:08:00
2 2023-01-26 12:00:00 Temperatura 12.8 del 26-01-2023 09:00, Menor que la Mínima 13.6 26-01-2023 12:00 12.8 -- 13.6 2023-01-26 11:41:00
2 2023-04-17 12:00:00 Temperatura 10.4 del 17-04-2023 09:00, Menor que la Mínima 10.7 17-04-2023 12:00 10.4 -- 10.7 2023-04-17 11:59:00
2 2023-05-21 12:00:00 Temperatura 11.0 del 21-05-2023 06:00, Menor que la Mínima 12.0 21-05-2023 12:00 11.0 -- 12.0 2023-05-21 12:02:00
2 2023-06-02 12:00:00 Temperatura 13.2 del 02-06-2023 03:00, Menor que la Mínima 13.6 02-06-2023 12:00 13.2 -- 13.6 2023-06-02 12:25:00
2 2023-10-29 12:00:00 Temperatura 11.2 del 29-10-2023 03:00, Menor que la Mínima 11.5 29-10-2023 12:00 11.2 -- 11.5 2023-10-29 11:40:00
2 2023-11-06 12:00:00 Temperatura 10.2 del 06-11-2023 09:00, Menor que la Mínima 10.4 06-11-2023 12:00 10.2 -- 10.4 2023-11-06 11:54:00
2 2023-11-18 12:00:00 Temperatura 10.8 del 18-11-2023 09:00, Menor que la Mínima 11.0 18-11-2023 12:00 10.8 -- 11.0 2023-11-18 11:42:00
2 2024-01-01 12:00:00 Temperatura 13.8 del 01-01-2024 09:00, Menor que la Mínima 14.2 01-01-2024 12:00 13.8 -- 14.2 2024-01-01 12:10:00
2 2024-01-01 12:00:00 Temperatura 13.8 del 01-01-2024 09:00, Menor que la Mínima 14.2 01-01-2024 12:00 13.8 -- 14.2 2024-01-01 12:10:00
2 2024-01-13 12:00:00 Temperatura 14.0 del 13-01-2024 09:00, Menor que la Mínima 14.4 13-01-2024 12:00 14.0 -- 14.4 2024-01-13 12:15:00
2 2022-09-08 06:00:00 Variación Tri-horaria de Intensidad del viento fuera de rango (3 hora Antes) 111 - 3 2022-09-08 06:08:00
2 2022-09-08 09:00:00 Variación Tri-horaria de Intensidad del viento fuera de rango (3 hora Antes) 6 - 111 2022-09-08 09:36:00
Errores del Nivel 33
Informe generado el 16-07-2024 20:50
Requerimiento: RE6001